EIN4CA LGSR-EIDW

Flight info

Callsign EIN4CA
Flight time 4h 26m
Altitude 34000
Route MADEX UL53 KOR UL613 YNN UL611 TUMBO DCT VAKSU DCT MONFA/N0447F360 DCT SOTOV DCT XEBIX DCT USUDO DCT LIRSU DCT DENUT L610 KOPUL Q60 OKSAW DCT TEWXI DCT LANON L18 LIPGO LIPGO3R
Aircraft A320/M-SDE3FGHIRWY/LB1

Departure

Time 2026-05-09 18:48
Airport Santorini International Airport (LGSR)

Arrival

Time 2026-05-09 23:14
Airport Dublin Airport (EIDW)
Time Latitude Longitude Altitude Speed Heading
2026-05-09 18:22 36.40345 25.47389 90 ft 0 kts 248°
2026-05-09 18:36 36.40350 25.47405 92 ft 2 kts 249°
2026-05-09 18:37 36.40360 25.47428 90 ft 4 kts 199°
2026-05-09 18:37 36.40384 25.47427 90 ft 4 kts 159°
2026-05-09 18:37 36.40377 25.47430 90 ft 4 kts 159°
2026-05-09 18:37 36.40367 25.47435 90 ft 0 kts 159°
2026-05-09 18:42 36.40333 25.47452 90 ft 7 kts 159°
2026-05-09 18:42 36.40318 25.47458 92 ft 8 kts 160°
2026-05-09 18:43 36.40264 25.47504 89 ft 10 kts 98°
2026-05-09 18:43 36.40261 25.47581 90 ft 9 kts 136°
2026-05-09 18:43 36.40180 25.47624 90 ft 15 kts 159°
2026-05-09 18:43 36.40078 25.47673 90 ft 16 kts 159°
2026-05-09 18:44 36.39970 25.47725 87 ft 17 kts 159°
2026-05-09 18:44 36.39852 25.47780 85 ft 19 kts 159°
2026-05-09 18:44 36.39721 25.47842 81 ft 21 kts 159°
2026-05-09 18:44 36.39573 25.47914 74 ft 24 kts 159°
2026-05-09 18:45 36.39408 25.47992 72 ft 27 kts 159°
2026-05-09 18:45 36.39226 25.48079 59 ft 28 kts 158°
2026-05-09 18:45 36.39065 25.48153 54 ft 19 kts 162°
2026-05-09 18:45 36.39002 25.48198 53 ft 9 kts 112°
2026-05-09 18:46 36.39017 25.48264 52 ft 6 kts 68°
2026-05-09 18:46 36.39027 25.48293 54 ft 1 kts 68°
2026-05-09 18:46 36.39043 25.48322 54 ft 5 kts 32°
2026-05-09 18:46 36.39065 25.48320 53 ft 2 kts 348°
2026-05-09 18:47 36.39086 25.48310 57 ft 0 kts 338°
2026-05-09 18:47 36.39150 25.48279 57 ft 41 kts 339°
2026-05-09 18:47 36.39658 25.48036 72 ft 115 kts 339°
2026-05-09 18:47 36.40605 25.47593 179 ft 165 kts 339°
2026-05-09 18:48 36.41703 25.47120 867 ft 169 kts 343°
2026-05-09 18:48 36.42857 25.46743 1579 ft 174 kts 341°
2026-05-09 18:48 36.44095 25.46350 1817 ft 195 kts 342°
2026-05-09 18:48 36.45496 25.45923 2024 ft 219 kts 342°
2026-05-09 18:49 36.47063 25.45449 2295 ft 243 kts 342°
2026-05-09 18:49 36.48773 25.44929 2789 ft 259 kts 342°
2026-05-09 18:49 36.50548 25.44390 3502 ft 266 kts 342°
2026-05-09 18:49 36.52362 25.43837 4274 ft 270 kts 342°
2026-05-09 18:50 36.54192 25.43276 5098 ft 272 kts 342°
2026-05-09 18:50 36.56036 25.42712 5873 ft 274 kts 342°
2026-05-09 18:50 36.57904 25.42137 6629 ft 278 kts 342°
2026-05-09 18:50 36.59762 25.41563 7353 ft 279 kts 342°
2026-05-09 18:51 36.61660 25.40977 8116 ft 281 kts 341°
2026-05-09 18:51 36.63544 25.40339 8881 ft 279 kts 334°
2026-05-09 18:51 36.65236 25.39207 9625 ft 275 kts 319°
2026-05-09 18:51 36.66592 25.37561 10312 ft 271 kts 304°
2026-05-09 18:52 36.67708 25.35592 10599 ft 289 kts 302°
2026-05-09 18:52 36.68902 25.33448 10735 ft 312 kts 302°
2026-05-09 18:52 36.70168 25.31174 11125 ft 323 kts 302°
2026-05-09 18:52 36.71465 25.28859 11755 ft 327 kts 303°
2026-05-09 18:53 36.72775 25.26532 12424 ft 329 kts 302°
2026-05-09 18:53 36.74097 25.24181 13077 ft 332 kts 303°
2026-05-09 18:53 36.75423 25.21817 13722 ft 334 kts 302°
2026-05-09 18:53 36.76758 25.19430 14300 ft 336 kts 302°
2026-05-09 18:54 36.78079 25.17061 14847 ft 338 kts 302°
2026-05-09 18:54 36.79427 25.14647 15414 ft 340 kts 302°
2026-05-09 18:54 36.80786 25.12215 15965 ft 342 kts 302°
2026-05-09 18:54 36.82151 25.09768 16539 ft 345 kts 302°
2026-05-09 18:55 36.83520 25.07307 17131 ft 346 kts 302°
2026-05-09 18:55 36.84898 25.04834 17682 ft 348 kts 302°
2026-05-09 18:55 36.86284 25.02345 18237 ft 350 kts 302°
2026-05-09 18:55 36.87679 24.99834 18711 ft 352 kts 303°
2026-05-09 18:56 36.89080 24.97312 19182 ft 355 kts 303°
2026-05-09 18:56 36.90490 24.94771 19647 ft 357 kts 303°
2026-05-09 18:56 36.91912 24.92209 20111 ft 359 kts 303°
2026-05-09 18:56 36.93340 24.89634 20573 ft 362 kts 303°
2026-05-09 18:57 36.94777 24.87038 21028 ft 364 kts 303°
2026-05-09 18:57 36.96223 24.84422 21467 ft 367 kts 303°
2026-05-09 18:57 36.97678 24.81788 21902 ft 369 kts 303°
2026-05-09 18:57 36.99145 24.79133 22322 ft 372 kts 303°
2026-05-09 18:58 37.00621 24.76465 22735 ft 374 kts 303°
2026-05-09 18:58 37.02087 24.73813 23132 ft 376 kts 304°
2026-05-09 18:58 37.03577 24.71114 23533 ft 378 kts 304°
2026-05-09 18:58 37.05076 24.68395 23867 ft 380 kts 304°
2026-05-09 18:59 37.06582 24.65654 24196 ft 382 kts 304°
2026-05-09 18:59 37.08090 24.62909 24523 ft 384 kts 304°
2026-05-09 18:59 37.09604 24.60150 24853 ft 385 kts 304°
2026-05-09 18:59 37.11126 24.57379 25168 ft 386 kts 304°
2026-05-09 19:00 37.12649 24.54600 25473 ft 388 kts 303°
2026-05-09 19:00 37.15709 24.49001 26101 ft 390 kts 303°
2026-05-09 19:00 37.17245 24.46194 26400 ft 392 kts 303°
2026-05-09 19:01 37.18787 24.43373 26716 ft 393 kts 303°
2026-05-09 19:01 37.20342 24.40535 27005 ft 395 kts 304°
2026-05-09 19:01 37.21885 24.37683 27286 ft 396 kts 303°
2026-05-09 19:01 37.23390 24.34780 27545 ft 398 kts 302°
2026-05-09 19:02 37.24868 24.31837 27815 ft 399 kts 301°
2026-05-09 19:02 37.26335 24.28875 28081 ft 400 kts 301°
2026-05-09 19:02 37.27806 24.25894 28345 ft 402 kts 301°
2026-05-09 19:02 37.29286 24.22911 28596 ft 403 kts 301°
2026-05-09 19:03 37.30773 24.19929 28840 ft 404 kts 302°
2026-05-09 19:03 37.32275 24.16936 29062 ft 405 kts 302°
2026-05-09 19:03 37.33783 24.13940 29311 ft 406 kts 302°
2026-05-09 19:03 37.35296 24.10935 29530 ft 407 kts 302°
2026-05-09 19:04 37.36811 24.07917 29746 ft 408 kts 302°
2026-05-09 19:04 37.38325 24.04891 29926 ft 410 kts 301°
2026-05-09 19:04 37.39841 24.01850 30161 ft 410 kts 301°
2026-05-09 19:04 37.41352 23.98818 30413 ft 409 kts 302°
2026-05-09 19:05 37.42862 23.95787 30670 ft 408 kts 302°
2026-05-09 19:05 37.44366 23.92769 30921 ft 406 kts 302°
2026-05-09 19:05 37.45866 23.89761 31171 ft 405 kts 302°
2026-05-09 19:05 37.47344 23.86793 31420 ft 404 kts 302°
2026-05-09 19:06 37.48834 23.83797 31669 ft 403 kts 302°
2026-05-09 19:06 37.50319 23.80810 31916 ft 402 kts 302°
2026-05-09 19:06 37.51800 23.77824 32169 ft 401 kts 302°
2026-05-09 19:06 37.53275 23.74848 32414 ft 400 kts 302°
2026-05-09 19:07 37.54745 23.71877 32643 ft 400 kts 302°
2026-05-09 19:07 37.56216 23.68905 32872 ft 399 kts 302°
2026-05-09 19:07 37.57682 23.65938 33125 ft 398 kts 302°
2026-05-09 19:07 37.59140 23.62984 33375 ft 397 kts 302°
2026-05-09 19:08 37.60600 23.60023 33623 ft 396 kts 302°
2026-05-09 19:08 37.62051 23.57081 33873 ft 395 kts 302°
2026-05-09 19:08 37.63501 23.54141 34006 ft 394 kts 302°
2026-05-09 19:08 37.64943 23.51216 34033 ft 392 kts 302°
2026-05-09 19:09 37.67817 23.45374 34032 ft 391 kts 302°
2026-05-09 19:09 37.70676 23.39540 34032 ft 391 kts 302°
2026-05-09 19:10 37.73541 23.33688 34039 ft 392 kts 302°
2026-05-09 19:10 37.76381 23.27879 34038 ft 391 kts 302°
2026-05-09 19:11 37.79240 23.22020 34040 ft 391 kts 302°
2026-05-09 19:11 37.82097 23.16153 34038 ft 392 kts 302°
2026-05-09 19:12 37.84951 23.10281 34023 ft 392 kts 302°
2026-05-09 19:12 37.87803 23.04401 34022 ft 392 kts 302°
2026-05-09 19:13 37.90658 22.98511 34027 ft 393 kts 302°
2026-05-09 19:13 37.93757 22.92828 34030 ft 393 kts 312°
2026-05-09 19:14 37.97769 22.88095 34051 ft 394 kts 316°
2026-05-09 19:14 38.01816 22.83399 34048 ft 394 kts 316°
2026-05-09 19:15 38.05863 22.78688 34045 ft 395 kts 315°
2026-05-09 19:15 38.09907 22.73972 34038 ft 395 kts 315°
2026-05-09 19:16 38.13940 22.69279 34043 ft 396 kts 316°
2026-05-09 19:16 38.18012 22.64562 34045 ft 396 kts 316°
2026-05-09 19:17 38.22076 22.59826 34045 ft 396 kts 315°
2026-05-09 19:17 38.25450 22.55883 34083 ft 396 kts 315°
2026-05-09 19:18 38.29511 22.51143 34079 ft 396 kts 315°
2026-05-09 19:18 38.33569 22.46405 34076 ft 395 kts 315°
2026-05-09 19:19 38.37622 22.41665 34073 ft 395 kts 315°
2026-05-09 19:19 38.41674 22.36915 34072 ft 396 kts 315°
2026-05-09 19:20 38.45723 22.32152 34079 ft 396 kts 315°
2026-05-09 19:20 38.49771 22.27381 34084 ft 396 kts 315°
2026-05-09 19:21 38.53821 22.22603 34087 ft 396 kts 315°
2026-05-09 19:21 38.57841 22.17860 34090 ft 396 kts 315°
2026-05-09 19:22 38.61883 22.13082 34089 ft 396 kts 315°
2026-05-09 19:22 38.65924 22.08291 34091 ft 396 kts 315°
2026-05-09 19:23 38.69957 22.03498 34092 ft 396 kts 315°
2026-05-09 19:23 38.73994 21.98689 34090 ft 396 kts 315°
2026-05-09 19:24 38.78031 21.93886 34090 ft 396 kts 315°
2026-05-09 19:24 38.82060 21.89082 34105 ft 396 kts 315°
2026-05-09 19:25 38.86089 21.84272 34107 ft 395 kts 315°
2026-05-09 19:25 38.90110 21.79453 34103 ft 395 kts 314°
2026-05-09 19:26 38.94118 21.74626 34094 ft 395 kts 314°
2026-05-09 19:26 38.98108 21.69818 34089 ft 396 kts 314°
2026-05-09 19:27 39.02125 21.64984 34088 ft 396 kts 314°
2026-05-09 19:27 39.06154 21.60150 34090 ft 396 kts 314°
2026-05-09 19:28 39.10181 21.55307 34101 ft 396 kts 314°
2026-05-09 19:28 39.14198 21.50464 34096 ft 396 kts 314°
2026-05-09 19:29 39.18212 21.45599 34092 ft 395 kts 314°
2026-05-09 19:29 39.22215 21.40736 34089 ft 395 kts 314°
2026-05-09 19:30 39.26221 21.35866 34088 ft 395 kts 314°
2026-05-09 19:30 39.30226 21.30991 34091 ft 396 kts 314°
2026-05-09 19:31 39.34233 21.26105 34095 ft 396 kts 314°
2026-05-09 19:31 39.38233 21.21217 34116 ft 396 kts 314°
2026-05-09 19:32 39.42231 21.16326 34116 ft 395 kts 314°
2026-05-09 19:32 39.46227 21.11431 34109 ft 396 kts 314°
2026-05-09 19:33 39.50200 21.06561 34107 ft 396 kts 314°
2026-05-09 19:33 39.54193 21.01650 34104 ft 396 kts 313°
2026-05-09 19:34 39.58193 20.96734 34100 ft 396 kts 314°
2026-05-09 19:34 39.62191 20.91811 34103 ft 396 kts 313°
2026-05-09 19:35 39.66181 20.86884 34128 ft 396 kts 314°
2026-05-09 19:35 39.70198 20.82002 34122 ft 397 kts 318°
2026-05-09 19:36 39.74660 20.77729 34103 ft 398 kts 320°
2026-05-09 19:36 39.79151 20.73492 34100 ft 399 kts 320°
2026-05-09 19:37 39.83646 20.69252 34096 ft 399 kts 320°
2026-05-09 19:37 39.88142 20.64995 34093 ft 399 kts 320°
2026-05-09 19:38 39.92600 20.60752 34106 ft 399 kts 320°
2026-05-09 19:38 39.97089 20.56482 34103 ft 399 kts 320°
2026-05-09 19:39 40.01576 20.52210 34100 ft 399 kts 320°
2026-05-09 19:39 40.06062 20.47928 34097 ft 399 kts 320°
2026-05-09 19:40 40.10539 20.43622 34093 ft 400 kts 320°
2026-05-09 19:40 40.15011 20.39296 34093 ft 400 kts 320°
2026-05-09 19:41 40.19462 20.35002 34110 ft 400 kts 320°
2026-05-09 19:41 40.23945 20.30671 34105 ft 400 kts 319°
2026-05-09 19:42 40.28421 20.26326 34103 ft 400 kts 319°
2026-05-09 19:42 40.32890 20.21977 34105 ft 400 kts 319°
2026-05-09 19:43 40.37360 20.17616 34100 ft 400 kts 319°
2026-05-09 19:43 40.41829 20.13251 34119 ft 400 kts 319°
2026-05-09 19:44 40.46293 20.08885 34112 ft 400 kts 319°
2026-05-09 19:44 40.50767 20.04517 34098 ft 401 kts 319°
2026-05-09 19:45 40.55240 20.00146 34094 ft 400 kts 319°
2026-05-09 19:45 40.59704 19.95759 34093 ft 400 kts 319°
2026-05-09 19:46 40.64166 19.91376 34086 ft 401 kts 319°
2026-05-09 19:46 40.68641 19.86981 34102 ft 401 kts 319°
2026-05-09 19:47 40.73107 19.82584 34096 ft 401 kts 319°
2026-05-09 19:47 40.77573 19.78182 34099 ft 401 kts 319°
2026-05-09 19:48 40.82036 19.73772 34087 ft 401 kts 319°
2026-05-09 19:48 40.86493 19.69353 34085 ft 401 kts 319°
2026-05-09 19:49 40.90950 19.64916 34110 ft 401 kts 319°
2026-05-09 19:49 40.95378 19.60509 34100 ft 401 kts 319°
2026-05-09 19:50 40.99834 19.56077 34105 ft 401 kts 319°
2026-05-09 19:50 41.04295 19.51635 34095 ft 401 kts 319°
2026-05-09 19:51 41.08745 19.47183 34092 ft 401 kts 319°
2026-05-09 19:51 41.13197 19.42718 34089 ft 401 kts 319°
2026-05-09 19:52 41.17651 19.38249 34087 ft 401 kts 319°
2026-05-09 19:52 41.22102 19.33773 34092 ft 401 kts 319°
2026-05-09 19:53 41.26552 19.29285 34089 ft 402 kts 319°
2026-05-09 19:53 41.31010 19.24792 34093 ft 402 kts 319°
2026-05-09 19:54 41.35467 19.20298 34093 ft 402 kts 318°
2026-05-09 19:54 41.39910 19.15797 34112 ft 402 kts 318°
2026-05-09 19:55 41.44360 19.11282 34116 ft 402 kts 318°
2026-05-09 19:56 41.51040 19.04500 34107 ft 402 kts 318°
2026-05-09 19:56 41.55492 18.99965 34105 ft 403 kts 318°
2026-05-09 19:57 41.59941 18.95412 34108 ft 403 kts 318°
2026-05-09 19:57 41.64364 18.90893 34109 ft 403 kts 318°
2026-05-09 19:58 41.68818 18.86337 34123 ft 403 kts 318°
2026-05-09 19:58 41.73267 18.81778 34119 ft 403 kts 317°
2026-05-09 19:59 41.77704 18.77204 34115 ft 403 kts 317°
2026-05-09 19:59 41.82148 18.72622 34105 ft 403 kts 317°
2026-05-09 20:00 41.86600 18.68034 34101 ft 404 kts 317°
2026-05-09 20:00 41.91057 18.63419 34127 ft 404 kts 317°
2026-05-09 20:01 41.95508 18.58823 34128 ft 404 kts 317°
2026-05-09 20:01 41.99963 18.54222 34120 ft 403 kts 317°
2026-05-09 20:02 42.04018 18.49106 34116 ft 398 kts 310°
2026-05-09 20:02 42.07879 18.43752 34113 ft 398 kts 310°
2026-05-09 20:03 42.13691 18.35719 34085 ft 400 kts 310°
2026-05-09 20:03 42.17565 18.30344 34113 ft 399 kts 310°
2026-05-09 20:04 42.20778 18.25877 34111 ft 399 kts 310°
2026-05-09 20:04 42.24635 18.20506 34112 ft 398 kts 310°
2026-05-09 20:05 42.28489 18.15121 34110 ft 398 kts 309°
2026-05-09 20:05 42.32331 18.09733 34107 ft 398 kts 309°
2026-05-09 20:06 42.36172 18.04337 34102 ft 398 kts 309°
2026-05-09 20:06 42.40021 17.98937 34116 ft 398 kts 309°
2026-05-09 20:07 42.43862 17.93530 34113 ft 398 kts 309°
2026-05-09 20:07 42.47671 17.88165 34113 ft 398 kts 309°
2026-05-09 20:08 42.53419 17.80052 34100 ft 398 kts 309°
2026-05-09 20:09 42.57239 17.74632 34098 ft 398 kts 309°
2026-05-09 20:09 42.61063 17.69201 34097 ft 398 kts 309°
2026-05-09 20:10 42.64891 17.63762 34096 ft 398 kts 309°
2026-05-09 20:10 42.68717 17.58309 34116 ft 398 kts 309°
2026-05-09 20:11 42.72536 17.52856 34112 ft 398 kts 309°
2026-05-09 20:11 42.76350 17.47402 34106 ft 398 kts 309°
2026-05-09 20:12 42.80163 17.41942 34098 ft 398 kts 309°
2026-05-09 20:12 42.83975 17.36471 34095 ft 398 kts 309°
2026-05-09 20:13 42.87756 17.31027 34091 ft 398 kts 309°
2026-05-09 20:13 42.91560 17.25539 34113 ft 398 kts 309°
2026-05-09 20:14 42.95363 17.20051 34115 ft 398 kts 309°
2026-05-09 20:14 42.99162 17.14563 34110 ft 397 kts 309°
2026-05-09 20:15 43.02957 17.09070 34106 ft 397 kts 309°
2026-05-09 20:15 43.06737 17.03573 34093 ft 397 kts 309°
2026-05-09 20:16 43.10523 16.98065 34084 ft 398 kts 309°
2026-05-09 20:16 43.14317 16.92542 34086 ft 398 kts 309°
2026-05-09 20:17 43.18107 16.87009 34106 ft 398 kts 308°
2026-05-09 20:17 43.21887 16.81475 34103 ft 397 kts 308°
2026-05-09 20:18 43.25663 16.75925 34092 ft 397 kts 308°
2026-05-09 20:18 43.29437 16.70380 34078 ft 397 kts 308°
2026-05-09 20:19 43.33205 16.64834 34069 ft 398 kts 308°
2026-05-09 20:19 43.36986 16.59266 34065 ft 399 kts 308°
2026-05-09 20:20 43.40766 16.53679 34090 ft 399 kts 308°
2026-05-09 20:20 43.44543 16.48088 34094 ft 398 kts 308°
2026-05-09 20:21 43.48312 16.42499 34097 ft 398 kts 308°
2026-05-09 20:21 43.52044 16.36946 34097 ft 397 kts 308°
2026-05-09 20:22 43.55794 16.31353 34089 ft 398 kts 308°
2026-05-09 20:22 43.59553 16.25750 34070 ft 398 kts 308°
2026-05-09 20:23 43.63310 16.20131 34070 ft 398 kts 308°
2026-05-09 20:23 43.67065 16.14505 34067 ft 398 kts 308°
2026-05-09 20:24 43.70816 16.08868 34071 ft 398 kts 308°
2026-05-09 20:24 43.74566 16.03225 34066 ft 399 kts 308°
2026-05-09 20:25 43.78317 15.97574 34053 ft 399 kts 308°
2026-05-09 20:25 43.82070 15.91890 34049 ft 400 kts 308°
2026-05-09 20:26 43.85831 15.86199 34047 ft 400 kts 308°
2026-05-09 20:26 43.89570 15.80541 34084 ft 401 kts 308°
2026-05-09 20:27 43.93323 15.74843 34090 ft 399 kts 308°
2026-05-09 20:27 43.97060 15.69148 34092 ft 398 kts 308°
2026-05-09 20:28 44.00790 15.63450 34078 ft 399 kts 308°
2026-05-09 20:28 44.04524 15.57748 34076 ft 399 kts 308°
2026-05-09 20:29 44.10121 15.49168 34078 ft 399 kts 308°
2026-05-09 20:29 44.13853 15.43437 34078 ft 399 kts 308°
2026-05-09 20:30 44.17572 15.37703 34101 ft 399 kts 308°
2026-05-09 20:30 44.21288 15.31967 34097 ft 398 kts 308°
2026-05-09 20:31 44.25000 15.26229 34088 ft 398 kts 308°
2026-05-09 20:31 44.28705 15.20488 34078 ft 398 kts 308°
2026-05-09 20:32 44.32413 15.14736 34065 ft 398 kts 308°
2026-05-09 20:32 44.36096 15.09020 34055 ft 398 kts 307°
2026-05-09 20:33 44.39801 15.03241 34065 ft 399 kts 307°
2026-05-09 20:33 44.43502 14.97460 34065 ft 399 kts 307°
2026-05-09 20:34 44.47201 14.91667 34063 ft 399 kts 307°
2026-05-09 20:34 44.50899 14.85883 34067 ft 399 kts 307°
2026-05-09 20:35 44.54595 14.80072 34058 ft 398 kts 307°
2026-05-09 20:35 44.58278 14.74263 34057 ft 398 kts 307°
2026-05-09 20:36 44.61963 14.68442 34064 ft 398 kts 307°
2026-05-09 20:36 44.65643 14.62624 34075 ft 398 kts 307°
2026-05-09 20:37 44.69313 14.56816 34078 ft 397 kts 307°
2026-05-09 20:37 44.72946 14.51039 34065 ft 397 kts 307°
2026-05-09 20:38 44.76620 14.45180 34041 ft 397 kts 307°
2026-05-09 20:38 44.80276 14.39350 34039 ft 398 kts 307°
2026-05-09 20:39 44.83917 14.33542 34042 ft 398 kts 307°
2026-05-09 20:39 44.87582 14.27690 34057 ft 398 kts 307°
2026-05-09 20:40 44.91226 14.21840 34059 ft 397 kts 307°
2026-05-09 20:40 44.94873 14.15984 34058 ft 397 kts 307°
2026-05-09 20:41 44.98522 14.10121 34055 ft 397 kts 307°
2026-05-09 20:41 45.02152 14.04243 34049 ft 397 kts 307°
2026-05-09 20:42 45.05776 13.98365 34052 ft 397 kts 307°
2026-05-09 20:42 45.09400 13.92483 34048 ft 397 kts 307°
2026-05-09 20:43 45.13038 13.86575 34057 ft 398 kts 306°
2026-05-09 20:43 45.16655 13.80693 34059 ft 398 kts 307°
2026-05-09 20:44 45.20291 13.74781 34065 ft 397 kts 306°
2026-05-09 20:44 45.23935 13.68818 34069 ft 397 kts 306°
2026-05-09 20:45 45.27523 13.62925 34076 ft 397 kts 306°
2026-05-09 20:45 45.31135 13.56979 34069 ft 398 kts 306°
2026-05-09 20:46 45.34757 13.51014 34064 ft 399 kts 306°
2026-05-09 20:46 45.38391 13.45031 34086 ft 399 kts 306°
2026-05-09 20:47 45.42015 13.39051 34078 ft 399 kts 306°
2026-05-09 20:47 45.45635 13.33062 34070 ft 399 kts 306°
2026-05-09 20:48 45.49308 13.27134 34063 ft 402 kts 311°
2026-05-09 20:48 45.53344 13.21605 34045 ft 403 kts 311°
2026-05-09 20:49 45.57398 13.16056 34038 ft 403 kts 311°
2026-05-09 20:49 45.61442 13.10503 34062 ft 403 kts 311°
2026-05-09 20:50 45.64799 13.05889 34073 ft 402 kts 311°
2026-05-09 20:50 45.69473 12.99451 34052 ft 401 kts 311°
2026-05-09 20:51 45.73490 12.93892 34071 ft 402 kts 311°
2026-05-09 20:51 45.76856 12.89229 34075 ft 402 kts 310°
2026-05-09 20:52 45.80867 12.83642 34081 ft 402 kts 310°
2026-05-09 20:52 45.84885 12.78059 34083 ft 402 kts 311°
2026-05-09 20:53 45.88872 12.72516 34067 ft 401 kts 311°
2026-05-09 20:53 45.92872 12.66933 34060 ft 401 kts 311°
2026-05-09 20:54 45.96875 12.61334 34056 ft 402 kts 311°
2026-05-09 20:54 46.00879 12.55724 34054 ft 402 kts 311°
2026-05-09 20:55 46.04877 12.50102 34055 ft 402 kts 311°
2026-05-09 20:55 46.08876 12.44468 34062 ft 403 kts 310°
2026-05-09 20:56 46.14885 12.35998 34058 ft 404 kts 310°
2026-05-09 20:57 46.18892 12.30320 34062 ft 405 kts 310°
2026-05-09 20:57 46.22913 12.24615 34060 ft 405 kts 311°
2026-05-09 20:58 46.26941 12.18896 34065 ft 406 kts 311°
2026-05-09 20:58 46.30965 12.13158 34072 ft 406 kts 310°
2026-05-09 20:59 46.34983 12.07407 34103 ft 406 kts 310°
2026-05-09 20:59 46.39006 12.01643 34102 ft 407 kts 310°
2026-05-09 21:00 46.45047 11.92978 34098 ft 407 kts 310°
2026-05-09 21:00 46.49044 11.87225 34101 ft 407 kts 310°
2026-05-09 21:01 46.53055 11.81439 34090 ft 407 kts 310°
2026-05-09 21:02 46.59083 11.72726 34108 ft 407 kts 310°
2026-05-09 21:02 46.63086 11.66921 34102 ft 406 kts 310°
2026-05-09 21:03 46.67079 11.61116 34097 ft 405 kts 310°
2026-05-09 21:03 46.71072 11.55312 34102 ft 405 kts 310°
2026-05-09 21:04 46.75058 11.49491 34096 ft 405 kts 310°
2026-05-09 21:04 46.79028 11.43666 34109 ft 405 kts 310°
2026-05-09 21:05 46.83000 11.37832 34109 ft 405 kts 310°
2026-05-09 21:05 46.86977 11.31992 34124 ft 405 kts 310°
2026-05-09 21:06 46.90913 11.26200 34125 ft 404 kts 310°
2026-05-09 21:06 46.94866 11.20344 34107 ft 403 kts 309°
2026-05-09 21:07 46.98706 11.14366 34127 ft 402 kts 308°
2026-05-09 21:07 47.02480 11.08309 34102 ft 403 kts 308°
2026-05-09 21:08 47.06264 11.02235 34133 ft 403 kts 308°
2026-05-09 21:08 47.10051 10.96167 34139 ft 403 kts 308°
2026-05-09 21:09 47.13844 10.90117 34124 ft 402 kts 308°
2026-05-09 21:09 47.17616 10.84116 34121 ft 402 kts 308°
2026-05-09 21:10 47.21400 10.78057 34101 ft 402 kts 308°
2026-05-09 21:10 47.25174 10.71979 34090 ft 402 kts 307°
2026-05-09 21:11 47.28948 10.65890 34074 ft 403 kts 307°
2026-05-09 21:12 47.38370 10.50640 34065 ft 401 kts 307°
2026-05-09 21:12 47.42526 10.45069 34060 ft 407 kts 316°
2026-05-09 21:13 47.47013 10.39940 34042 ft 408 kts 316°
2026-05-09 21:13 47.51498 10.34797 34026 ft 408 kts 316°
2026-05-09 21:14 47.55984 10.29624 34049 ft 409 kts 316°
2026-05-09 21:14 47.60459 10.24445 34044 ft 407 kts 316°
2026-05-09 21:15 47.64925 10.19268 34047 ft 406 kts 316°
2026-05-09 21:15 47.69372 10.14103 34049 ft 406 kts 316°
2026-05-09 21:16 47.73826 10.08917 34018 ft 406 kts 316°
2026-05-09 21:16 47.78260 10.03743 34021 ft 407 kts 316°
2026-05-09 21:17 47.82706 9.98543 34031 ft 406 kts 316°
2026-05-09 21:17 47.87149 9.93328 34032 ft 406 kts 316°
2026-05-09 21:18 47.91582 9.88119 34031 ft 406 kts 316°
2026-05-09 21:18 47.96013 9.82908 34024 ft 406 kts 316°
2026-05-09 21:19 48.04865 9.72442 34039 ft 406 kts 316°
2026-05-09 21:20 48.09268 9.67150 34037 ft 403 kts 312°
2026-05-09 21:20 48.13296 9.61357 34031 ft 401 kts 310°
2026-05-09 21:21 48.17313 9.55538 34026 ft 401 kts 310°
2026-05-09 21:21 48.21320 9.49712 34023 ft 401 kts 310°
2026-05-09 21:22 48.25324 9.43883 34018 ft 401 kts 310°
2026-05-09 21:22 48.29335 9.38036 34033 ft 402 kts 310°
2026-05-09 21:23 48.33319 9.32214 34033 ft 402 kts 310°
2026-05-09 21:23 48.37324 9.26347 34033 ft 402 kts 310°
2026-05-09 21:24 48.41332 9.20471 34032 ft 402 kts 310°
2026-05-09 21:24 48.45332 9.14587 34026 ft 402 kts 310°
2026-05-09 21:25 48.49329 9.08693 34015 ft 402 kts 310°
2026-05-09 21:25 48.53332 9.02775 33992 ft 403 kts 310°
2026-05-09 21:26 48.57343 8.96831 33992 ft 404 kts 310°
2026-05-09 21:26 48.61356 8.90865 33994 ft 405 kts 310°
2026-05-09 21:27 48.65368 8.84887 33993 ft 405 kts 310°
2026-05-09 21:27 48.69381 8.78900 33998 ft 405 kts 310°
2026-05-09 21:28 48.73391 8.72892 34006 ft 405 kts 310°
2026-05-09 21:28 48.77411 8.66867 34018 ft 407 kts 310°
2026-05-09 21:29 48.81432 8.60823 34015 ft 407 kts 310°
2026-05-09 21:29 48.85456 8.54760 34012 ft 407 kts 310°
2026-05-09 21:30 48.88986 8.49429 34005 ft 407 kts 310°
2026-05-09 21:30 48.93006 8.43351 34003 ft 407 kts 310°
2026-05-09 21:31 48.97027 8.37260 34004 ft 408 kts 310°
2026-05-09 21:31 49.01013 8.31189 34022 ft 407 kts 310°
2026-05-09 21:32 49.05009 8.25094 34023 ft 406 kts 310°
2026-05-09 21:32 49.08993 8.19004 34025 ft 405 kts 310°
2026-05-09 21:33 49.12966 8.12907 34029 ft 405 kts 310°
2026-05-09 21:33 49.16940 8.06807 34022 ft 404 kts 310°
2026-05-09 21:34 49.20900 8.00712 34015 ft 404 kts 309°
2026-05-09 21:34 49.24859 7.94596 34008 ft 405 kts 309°
2026-05-09 21:35 49.28823 7.88461 34022 ft 405 kts 309°
2026-05-09 21:35 49.32115 7.83358 34021 ft 405 kts 309°
2026-05-09 21:36 49.36079 7.77200 34023 ft 405 kts 309°
2026-05-09 21:36 49.40034 7.71036 34023 ft 405 kts 309°
2026-05-09 21:37 49.43992 7.64862 34023 ft 405 kts 309°
2026-05-09 21:37 49.47947 7.58682 34024 ft 406 kts 309°
2026-05-09 21:38 49.51917 7.52468 34033 ft 407 kts 309°
2026-05-09 21:38 49.55864 7.46249 34037 ft 406 kts 309°
2026-05-09 21:39 49.59784 7.40061 34030 ft 406 kts 309°
2026-05-09 21:39 49.63725 7.33835 34032 ft 405 kts 308°
2026-05-09 21:40 49.67651 7.27591 34027 ft 405 kts 308°
2026-05-09 21:40 49.71572 7.21343 34044 ft 405 kts 308°
2026-05-09 21:41 49.75498 7.15093 34050 ft 405 kts 308°
2026-05-09 21:41 49.79426 7.08832 34046 ft 406 kts 308°
2026-05-09 21:42 49.83357 7.02558 34025 ft 405 kts 308°
2026-05-09 21:42 49.87277 6.96275 34029 ft 405 kts 308°
2026-05-09 21:43 49.91195 6.89981 34002 ft 406 kts 308°
2026-05-09 21:43 49.95115 6.83661 34028 ft 406 kts 308°
2026-05-09 21:44 49.99025 6.77340 34042 ft 406 kts 307°
2026-05-09 21:44 50.02939 6.70992 34054 ft 406 kts 308°
2026-05-09 21:45 50.06852 6.64651 34049 ft 406 kts 308°
2026-05-09 21:45 50.10755 6.58300 34035 ft 405 kts 308°
2026-05-09 21:46 50.14618 6.51980 34018 ft 405 kts 308°
2026-05-09 21:46 50.18449 6.45551 34017 ft 402 kts 302°
2026-05-09 21:47 50.21441 6.38302 34048 ft 397 kts 296°
2026-05-09 21:47 50.24334 6.30967 34047 ft 396 kts 296°
2026-05-09 21:48 50.27228 6.23631 34058 ft 397 kts 297°
2026-05-09 21:48 50.30122 6.16258 34050 ft 397 kts 296°
2026-05-09 21:49 50.33002 6.08886 34053 ft 397 kts 296°
2026-05-09 21:49 50.35882 6.01497 34040 ft 397 kts 296°
2026-05-09 21:50 50.38758 5.94107 34060 ft 397 kts 296°
2026-05-09 21:51 50.43065 5.83011 34066 ft 397 kts 296°
2026-05-09 21:51 50.45921 5.75612 34064 ft 397 kts 296°
2026-05-09 21:52 50.48768 5.68200 34069 ft 396 kts 296°
2026-05-09 21:52 50.51617 5.60779 34090 ft 396 kts 296°
2026-05-09 21:53 50.54464 5.53346 34079 ft 397 kts 295°
2026-05-09 21:53 50.57308 5.45901 34075 ft 397 kts 295°
2026-05-09 21:54 50.61564 5.34717 34065 ft 397 kts 295°
2026-05-09 21:54 50.64387 5.27244 34054 ft 397 kts 295°
2026-05-09 21:55 50.67198 5.19819 34056 ft 397 kts 295°
2026-05-09 21:55 50.70027 5.12320 34082 ft 397 kts 295°
2026-05-09 21:56 50.72714 5.05162 34078 ft 398 kts 295°
2026-05-09 21:56 50.75525 4.97637 34076 ft 398 kts 295°
2026-05-09 21:57 50.78341 4.90108 34098 ft 398 kts 295°
2026-05-09 21:57 50.81156 4.82565 34090 ft 398 kts 295°
2026-05-09 21:58 50.83961 4.74999 34084 ft 398 kts 295°
2026-05-09 21:58 50.86763 4.67425 34100 ft 398 kts 295°
2026-05-09 21:59 50.89559 4.59853 34090 ft 398 kts 295°
2026-05-09 21:59 50.92347 4.52270 34074 ft 398 kts 294°
2026-05-09 22:00 50.95134 4.44675 34068 ft 398 kts 294°
2026-05-09 22:00 50.97898 4.37126 34076 ft 398 kts 294°
2026-05-09 22:01 51.00676 4.29516 34072 ft 399 kts 294°
2026-05-09 22:01 51.03452 4.21894 34074 ft 399 kts 294°
2026-05-09 22:02 51.06228 4.14249 34082 ft 399 kts 294°
2026-05-09 22:02 51.08987 4.06595 34082 ft 399 kts 294°
2026-05-09 22:03 51.11740 3.98942 34071 ft 399 kts 294°
2026-05-09 22:03 51.14505 3.91267 34070 ft 399 kts 294°
2026-05-09 22:04 51.17255 3.83597 34065 ft 399 kts 294°
2026-05-09 22:04 51.20000 3.75917 34066 ft 399 kts 294°
2026-05-09 22:05 51.22716 3.68211 34062 ft 397 kts 290°
2026-05-09 22:05 51.24381 3.59970 34065 ft 387 kts 277°
2026-05-09 22:06 51.25496 3.51542 34057 ft 388 kts 278°
2026-05-09 22:06 51.26614 3.43110 34060 ft 388 kts 278°
2026-05-09 22:07 51.27714 3.34726 34061 ft 388 kts 277°
2026-05-09 22:07 51.28804 3.26227 34102 ft 388 kts 277°
2026-05-09 22:08 51.29869 3.17852 34120 ft 386 kts 277°
2026-05-09 22:08 51.30942 3.09415 34110 ft 384 kts 277°
2026-05-09 22:09 51.32006 3.01071 34104 ft 383 kts 277°
2026-05-09 22:09 51.33050 2.92786 34106 ft 382 kts 277°
2026-05-09 22:10 51.34082 2.84484 34114 ft 381 kts 277°
2026-05-09 22:10 51.35106 2.76172 34106 ft 381 kts 277°
2026-05-09 22:11 51.36132 2.67860 34101 ft 381 kts 277°
2026-05-09 22:11 51.37157 2.59556 34100 ft 380 kts 277°
2026-05-09 22:12 51.38177 2.51248 34098 ft 380 kts 277°
2026-05-09 22:12 51.39187 2.42935 34101 ft 380 kts 277°
2026-05-09 22:13 51.40188 2.34628 34109 ft 380 kts 276°
2026-05-09 22:13 51.41179 2.26313 34111 ft 380 kts 276°
2026-05-09 22:14 51.42186 2.18005 34113 ft 380 kts 276°
2026-05-09 22:14 51.43209 2.09688 34114 ft 380 kts 276°
2026-05-09 22:15 51.44223 2.01378 34113 ft 380 kts 276°
2026-05-09 22:15 51.45215 1.93057 34111 ft 380 kts 276°
2026-05-09 22:16 51.46186 1.84734 34124 ft 380 kts 275°
2026-05-09 22:16 51.47143 1.76453 34118 ft 380 kts 275°
2026-05-09 22:17 51.48102 1.68123 34120 ft 380 kts 275°
2026-05-09 22:17 51.49055 1.59789 34119 ft 380 kts 275°
2026-05-09 22:18 51.50005 1.51447 34122 ft 380 kts 275°
2026-05-09 22:18 51.50949 1.43100 34136 ft 380 kts 275°
2026-05-09 22:19 51.51884 1.34740 34129 ft 381 kts 274°
2026-05-09 22:19 51.52816 1.26370 34126 ft 381 kts 274°
2026-05-09 22:20 51.53742 1.17984 34126 ft 381 kts 274°
2026-05-09 22:20 51.54580 1.09594 34125 ft 379 kts 271°
2026-05-09 22:21 51.55041 1.02541 34125 ft 378 kts 270°
2026-05-09 22:21 51.55503 0.94122 34139 ft 379 kts 269°
2026-05-09 22:22 51.55999 0.85671 34134 ft 380 kts 270°
2026-05-09 22:22 51.56514 0.77258 34125 ft 381 kts 270°
2026-05-09 22:23 51.57045 0.68770 34125 ft 382 kts 270°
2026-05-09 22:23 51.57570 0.60249 34134 ft 382 kts 270°
2026-05-09 22:24 51.58073 0.51723 34126 ft 383 kts 270°
2026-05-09 22:24 51.58581 0.43186 34111 ft 384 kts 270°
2026-05-09 22:25 51.59086 0.34611 34107 ft 386 kts 270°
2026-05-09 22:25 51.59585 0.26007 34111 ft 387 kts 270°
2026-05-09 22:26 51.60077 0.17376 34113 ft 387 kts 269°
2026-05-09 22:26 51.60561 0.08785 34120 ft 388 kts 269°
2026-05-09 22:27 51.61021 0.00534 34122 ft 388 kts 269°
2026-05-09 22:27 51.61495 -0.08140 34187 ft 390 kts 270°
2026-05-09 22:28 51.61975 -0.16826 34193 ft 391 kts 270°
2026-05-09 22:28 51.62518 -0.25558 34202 ft 393 kts 270°
2026-05-09 22:29 51.63073 -0.34306 34204 ft 393 kts 270°
2026-05-09 22:29 51.63608 -0.43068 34121 ft 393 kts 270°
2026-05-09 22:30 51.64128 -0.51835 34124 ft 393 kts 270°
2026-05-09 22:30 51.64642 -0.60599 34121 ft 393 kts 270°
2026-05-09 22:31 51.65152 -0.69363 34124 ft 393 kts 270°
2026-05-09 22:31 51.65645 -0.78062 34121 ft 392 kts 270°
2026-05-09 22:32 51.66101 -0.86271 34117 ft 393 kts 270°
2026-05-09 22:32 51.66591 -0.95025 34129 ft 393 kts 270°
2026-05-09 22:33 51.67072 -1.03813 34124 ft 394 kts 270°
2026-05-09 22:33 51.67548 -1.12608 34115 ft 396 kts 270°
2026-05-09 22:34 51.68022 -1.21470 34114 ft 397 kts 270°
2026-05-09 22:34 51.68488 -1.30348 34117 ft 398 kts 270°
2026-05-09 22:35 51.68947 -1.39263 34120 ft 399 kts 270°
2026-05-09 22:35 51.69405 -1.48167 34127 ft 400 kts 270°
2026-05-09 22:36 51.69856 -1.57121 34114 ft 402 kts 270°
2026-05-09 22:36 51.70397 -1.66122 34109 ft 407 kts 276°
2026-05-09 22:37 51.72348 -1.74801 34116 ft 418 kts 291°
2026-05-09 22:37 51.74966 -1.83175 34109 ft 418 kts 291°
2026-05-09 22:38 51.77551 -1.91530 34114 ft 419 kts 291°
2026-05-09 22:39 51.81424 -2.04197 34124 ft 420 kts 292°
2026-05-09 22:39 51.83864 -2.12787 34126 ft 420 kts 290°
2026-05-09 22:40 51.87385 -2.25791 34130 ft 421 kts 290°
2026-05-09 22:40 51.89763 -2.34463 34143 ft 421 kts 290°
2026-05-09 22:41 51.92149 -2.43137 34143 ft 422 kts 290°
2026-05-09 22:41 51.94534 -2.51832 34141 ft 423 kts 291°
2026-05-09 22:42 51.96915 -2.60560 34147 ft 424 kts 291°
2026-05-09 22:42 51.99287 -2.69313 34154 ft 424 kts 291°
2026-05-09 22:43 52.01642 -2.78035 34179 ft 425 kts 291°
2026-05-09 22:43 52.04006 -2.86825 34181 ft 424 kts 291°
2026-05-09 22:44 52.06347 -2.95562 34198 ft 424 kts 291°
2026-05-09 22:44 52.08699 -3.04366 34200 ft 425 kts 291°
2026-05-09 22:45 52.11043 -3.13186 34185 ft 425 kts 291°
2026-05-09 22:45 52.13384 -3.22020 34185 ft 425 kts 291°
2026-05-09 22:46 52.15717 -3.30862 34201 ft 425 kts 291°
2026-05-09 22:47 52.19203 -3.44129 34194 ft 425 kts 291°
2026-05-09 22:47 52.21529 -3.52986 34190 ft 425 kts 291°
2026-05-09 22:48 52.23848 -3.61860 34185 ft 425 kts 291°
2026-05-09 22:48 52.26137 -3.70712 34175 ft 426 kts 291°
2026-05-09 22:49 52.28446 -3.79698 34175 ft 427 kts 291°
2026-05-09 22:49 52.29584 -3.84119 33997 ft 428 kts 291°
2026-05-09 22:49 52.30742 -3.88612 32483 ft 433 kts 291°
2026-05-09 22:49 52.31917 -3.93171 31103 ft 434 kts 290°
2026-05-09 22:50 52.33069 -3.97650 30466 ft 418 kts 290°
2026-05-09 22:50 52.34168 -4.01934 29910 ft 400 kts 290°
2026-05-09 22:50 52.35222 -4.06054 29401 ft 384 kts 290°
2026-05-09 22:50 52.36242 -4.10064 28902 ft 379 kts 290°
2026-05-09 22:51 52.37245 -4.14024 28414 ft 376 kts 290°
2026-05-09 22:51 52.38242 -4.17961 27943 ft 372 kts 290°
2026-05-09 22:51 52.39228 -4.21862 27467 ft 369 kts 290°
2026-05-09 22:51 52.40204 -4.25726 27014 ft 366 kts 290°
2026-05-09 22:52 52.41173 -4.29569 26558 ft 363 kts 290°
2026-05-09 22:52 52.42135 -4.33376 26110 ft 361 kts 291°
2026-05-09 22:52 52.43301 -4.37006 25669 ft 360 kts 300°
2026-05-09 22:52 52.44834 -4.40259 25226 ft 361 kts 310°
2026-05-09 22:53 52.46555 -4.43235 24774 ft 359 kts 310°
2026-05-09 22:53 52.48263 -4.46203 24342 ft 356 kts 310°
2026-05-09 22:53 52.49952 -4.49156 23909 ft 354 kts 310°
2026-05-09 22:53 52.51632 -4.52107 23421 ft 352 kts 309°
2026-05-09 22:54 52.53298 -4.55027 22972 ft 348 kts 309°
2026-05-09 22:54 52.54948 -4.57915 22535 ft 345 kts 309°
2026-05-09 22:54 52.56577 -4.60779 22098 ft 342 kts 309°
2026-05-09 22:54 52.58196 -4.63633 21665 ft 340 kts 309°
2026-05-09 22:55 52.59797 -4.66462 21226 ft 338 kts 309°
2026-05-09 22:55 52.61377 -4.69255 20785 ft 336 kts 310°
2026-05-09 22:55 52.62986 -4.72101 20334 ft 335 kts 310°
2026-05-09 22:55 52.64574 -4.74909 19887 ft 334 kts 310°
2026-05-09 22:56 52.66158 -4.77706 19445 ft 334 kts 310°
2026-05-09 22:56 52.67739 -4.80502 19018 ft 333 kts 309°
2026-05-09 22:56 52.69299 -4.83267 18578 ft 333 kts 310°
2026-05-09 22:56 52.70874 -4.86062 18098 ft 332 kts 310°
2026-05-09 22:57 52.72460 -4.88879 17654 ft 329 kts 309°
2026-05-09 22:57 52.73992 -4.91602 17231 ft 327 kts 309°
2026-05-09 22:57 52.75534 -4.94344 16806 ft 325 kts 310°
2026-05-09 22:57 52.77085 -4.97109 16387 ft 323 kts 310°
2026-05-09 22:58 52.78590 -4.99796 15976 ft 322 kts 309°
2026-05-09 22:58 52.80103 -5.02501 15562 ft 320 kts 309°
2026-05-09 22:58 52.81611 -5.05198 15147 ft 319 kts 311°
2026-05-09 22:58 52.83115 -5.07893 14732 ft 318 kts 310°
2026-05-09 22:59 52.84610 -5.10575 14314 ft 318 kts 311°
2026-05-09 22:59 52.86109 -5.13266 13882 ft 317 kts 311°
2026-05-09 22:59 52.87600 -5.15947 13442 ft 315 kts 311°
2026-05-09 22:59 52.89079 -5.18610 13010 ft 314 kts 311°
2026-05-09 23:00 52.90551 -5.21265 12594 ft 311 kts 312°
2026-05-09 23:00 52.92011 -5.23899 12172 ft 309 kts 312°
2026-05-09 23:00 52.93462 -5.26515 11746 ft 307 kts 312°
2026-05-09 23:00 52.94904 -5.29119 11325 ft 305 kts 312°
2026-05-09 23:01 52.96335 -5.31708 10895 ft 304 kts 312°
2026-05-09 23:01 52.97758 -5.34289 10503 ft 302 kts 312°
2026-05-09 23:01 52.99148 -5.36813 10373 ft 290 kts 312°
2026-05-09 23:01 53.00492 -5.39253 10190 ft 282 kts 312°
2026-05-09 23:02 53.01811 -5.41646 10126 ft 279 kts 312°
2026-05-09 23:02 53.03096 -5.43980 9860 ft 269 kts 312°
2026-05-09 23:02 53.04352 -5.46264 9333 ft 265 kts 312°
2026-05-09 23:02 53.05595 -5.48525 8957 ft 265 kts 312°
2026-05-09 23:03 53.06962 -5.50572 8606 ft 263 kts 326°
2026-05-09 23:03 53.08486 -5.52178 8246 ft 262 kts 328°
2026-05-09 23:03 53.10027 -5.53792 7890 ft 261 kts 328°
2026-05-09 23:03 53.11560 -5.55402 7541 ft 260 kts 328°
2026-05-09 23:04 53.13084 -5.57005 7284 ft 257 kts 328°
2026-05-09 23:04 53.14599 -5.58600 7277 ft 258 kts 329°
2026-05-09 23:04 53.16112 -5.60193 7278 ft 257 kts 329°
2026-05-09 23:04 53.17621 -5.61785 7266 ft 254 kts 328°
2026-05-09 23:05 53.18983 -5.63523 7203 ft 239 kts 322°
2026-05-09 23:05 53.19826 -5.64712 7171 ft 230 kts 320°
2026-05-09 23:05 53.21031 -5.66473 7123 ft 233 kts 321°
2026-05-09 23:05 53.22251 -5.68271 7071 ft 235 kts 320°
2026-05-09 23:06 53.23483 -5.70082 7020 ft 236 kts 320°
2026-05-09 23:06 53.24718 -5.71887 6967 ft 236 kts 320°
2026-05-09 23:06 53.25958 -5.73691 6922 ft 235 kts 321°
2026-05-09 23:06 53.27174 -5.75458 6870 ft 235 kts 321°
2026-05-09 23:07 53.28410 -5.77250 6820 ft 235 kts 321°
2026-05-09 23:07 53.29641 -5.79035 6632 ft 233 kts 322°
2026-05-09 23:07 53.30859 -5.80799 6306 ft 230 kts 322°
2026-05-09 23:07 53.32067 -5.82548 5943 ft 229 kts 322°
2026-05-09 23:08 53.33270 -5.84293 5568 ft 229 kts 324°
2026-05-09 23:08 53.34499 -5.86076 4985 ft 238 kts 323°
2026-05-09 23:08 53.35760 -5.87913 4516 ft 240 kts 324°
2026-05-09 23:08 53.36992 -5.89714 4110 ft 230 kts 324°
2026-05-09 23:09 53.38158 -5.91428 3884 ft 214 kts 324°
2026-05-09 23:09 53.39225 -5.92999 3835 ft 196 kts 326°
2026-05-09 23:09 53.40085 -5.94764 3774 ft 200 kts 302°
2026-05-09 23:09 53.40452 -5.97052 3600 ft 208 kts 281°
2026-05-09 23:10 53.40584 -5.99439 3358 ft 204 kts 282°
2026-05-09 23:10 53.40714 -6.01788 3059 ft 201 kts 282°
2026-05-09 23:10 53.40844 -6.04098 2783 ft 198 kts 282°
2026-05-09 23:10 53.40974 -6.06371 2515 ft 194 kts 281°
2026-05-09 23:11 53.41101 -6.08600 2252 ft 191 kts 281°
2026-05-09 23:11 53.41222 -6.10766 1980 ft 182 kts 284°
2026-05-09 23:11 53.41334 -6.12782 1757 ft 165 kts 284°
2026-05-09 23:11 53.41437 -6.14619 1529 ft 154 kts 286°
2026-05-09 23:12 53.41537 -6.16369 1320 ft 149 kts 287°
2026-05-09 23:12 53.41634 -6.18072 1117 ft 147 kts 285°
2026-05-09 23:12 53.41728 -6.19751 886 ft 142 kts 282°
2026-05-09 23:12 53.41818 -6.21360 689 ft 136 kts 284°
2026-05-09 23:13 53.41904 -6.22914 519 ft 132 kts 283°
2026-05-09 23:13 53.41989 -6.24443 323 ft 130 kts 282°
2026-05-09 23:13 53.42077 -6.25940 218 ft 124 kts 279°
2026-05-09 23:13 53.42135 -6.27087 214 ft 61 kts 274°
2026-05-09 23:14 53.42167 -6.27582 212 ft 39 kts 276°
2026-05-09 23:14 53.42238 -6.27959 216 ft 31 kts 296°
2026-05-09 23:14 53.42328 -6.28126 215 ft 15 kts 357°
2026-05-09 23:14 53.42357 -6.27982 211 ft 15 kts 94°
2026-05-09 23:15 53.42350 -6.27822 219 ft 13 kts 94°
2026-05-09 23:15 53.42343 -6.27676 211 ft 12 kts 94°
2026-05-09 23:15 53.42336 -6.27545 213 ft 11 kts 95°
2026-05-09 23:15 53.42329 -6.27427 211 ft 10 kts 96°
2026-05-09 23:16 53.42323 -6.27322 211 ft 9 kts 96°
2026-05-09 23:16 53.42318 -6.27229 211 ft 7 kts 95°
2026-05-09 23:16 53.42313 -6.27141 211 ft 11 kts 95°
2026-05-09 23:16 53.42301 -6.26926 211 ft 21 kts 94°
2026-05-09 23:17 53.42289 -6.26677 211 ft 22 kts 96°
2026-05-09 23:17 53.42275 -6.26406 215 ft 24 kts 94°
2026-05-09 23:17 53.42260 -6.26111 211 ft 26 kts 95°
2026-05-09 23:17 53.42242 -6.25792 211 ft 28 kts 95°
2026-05-09 23:18 53.42223 -6.25486 211 ft 25 kts 97°
2026-05-09 23:18 53.42208 -6.25224 218 ft 21 kts 95°
2026-05-09 23:18 53.42195 -6.24997 211 ft 17 kts 95°
2026-05-09 23:18 53.42184 -6.24796 211 ft 17 kts 95°
2026-05-09 23:19 53.42174 -6.24604 218 ft 17 kts 95°
2026-05-09 23:19 53.42164 -6.24418 211 ft 16 kts 95°
2026-05-09 23:19 53.42164 -6.24257 219 ft 10 kts 71°
2026-05-09 23:19 53.42210 -6.24174 216 ft 9 kts 40°
2026-05-09 23:20 53.42247 -6.24134 211 ft 7 kts 25°
2026-05-09 23:21 53.42378 -6.24168 211 ft 0 kts 315°